GSAT0227 (GALILEO 30)

Last updated on Sun Apr 12 2026 00:02:39 GMT+0000 (Coordinated Universal Time)

1 59600U 24079C 26100.54588912 .00000056 00000+0 00000+0 0 9992 2 59600 55.0713 102.9671 0000936 7.2035 352.8246 1.70474672 12218
UTC large
Height (km)
Speed (km/s)
/
Latitude / Longitude
Inclination (degrees)
Orbital Period (minutes)
Azimuth
Elevation
Range (km)
Doppler Factor

Next 0 passes for location: London (51.5072 / 0.1276)

Sorry there are no passes over London.
GSAT0227 (GALILEO 30)